Temp
10 7 6 8 9 9 9 8 7 7 9 10 9 10 12 13 13 14 15 16 18 19 21 22 22 21 21 21 21 22 22 22 21 20 20 20 21 21 21 21 21 20 20 20
7 7 9 10 9 9 9 8 8 8 10 11 9 11 12 11 12 14 15 16 18 19 21 22 22 23 22 22 22 21 22 22 22 21 21 20 20 21 21 21 21 21 21 20
7 10 10 9 8 8 8 9 8 8 9 9 9 9 11 14 14 16 16 17 18 18 18 20 20 21 21 21 22 22 22 22 22 22 21 20 19 19 20 21 21 22 21 21
9 9 9 9 9 9 8 9 9 8 7 7 10 8 11 11 14 14 16 15 15 15 17 18 20 21 21 21 20 21 22 22 22 22 20 21 21 21 22 22 22 22 21 21
8 8 8 8 8 9 8 9 8 9 8 7 9 7 9 11 11 12 13 13 13 14 14 15 15 18 20 20 19 20 21 21 21 22 22 22 22 22 22 21 21 22 22 22
8 9 9 9 9 9 9 9 8 8 7 7 9 9 8 8 10 11 12 12 12 12 12 12 12 14 16 18 19 20 19 21 21 21 21 22 22 23 22 21 21 22 23 22
5 7 8 8 7 8 7 7 6 7 7 8 9 8 8 10 10 11 11 11 12 12 12 11 12 12 12 14 17 19 20 19 20 20 21 21 22 22 22 23 23 22 21 23
4 7 7 8 8 7 7 8 4 4 7 7 8 8 7 10 10 9 9 10 11 11 10 11 11 11 11 12 13 16 17 18 18 18 19 19 20 21 21 20 21 22 23 23
4 5 6 7 8 8 8 6 8 6 7 6 7 8 10 9 10 9 8 10 10 9 9 9 11 11 11 12 13 12 13 16 17 17 16 16 16 16 17 17 18 18 19 22
5 4 7 6 8 8 8 8 6 6 7 7 8 7 6 9 10 10 8 8 9 9 8 8 8 11 11 12 13 13 13 12 13 15 15 16 15 16 16 15 16 16 17 16
5 4 5 6 6 6 5 5 5 6 6 5 6 7 9 8 8 8 8 8 8 9 9 7 8 8 11 11 11 13 12 12 12 12 14 14 14 15 15 16 15 16 17 15
5 3 3 5 5 6 6 5 5 5 5 5 5 6 8 7 7 8 8 8 7 7 8 8 8 8 8 10 10 11 12 12 12 12 12 12 13 14 14 15 15 15 15 15
4 2 1 5 6 6 5 5 5 4 4 5 5 6 8 7 7 7 7 7 7 7 6 6 7 7 7 7 8 9 9 11 12 12 12 12 12 12 12 12 13 13 14 14
5 3 3 3 5 3 4 4 4 4 -0 2 4 5 6 6 5 6 6 7 6 6 6 6 6 6 7 8 7 8 9 9 10 11 11 12 12 12 12 13 13 12 13 13
3 1 3 3 3 3 3 3 3 3 3 2 4 4 5 5 5 6 6 6 5 5 5 5 5 5 5 6 6 7 8 8 9 10 10 11 11 11 12 13 13 13 13 13
2 0 2 1 2 2 2 3 2 3 3 3 4 4 5 5 5 6 5 5 6 5 5 4 4 4 4 5 4 6 6 7 8 9 9 10 10 11 12 12 12 13 13 13
2 1 0 1 3 3 -0 2 3 5 4 4 4 4 4 4 4 5 5 5 5 5 5 4 3 2 2 3 4 3 4 4 6 7 7 8 9 10 10 11 12 11 12 13
1 1 0 -0 2 -2 4 5 5 4 4 4 4 4 4 4 5 5 5 5 5 4 3 4 4 3 2 2 3 3 3 3 4 4 4 5 6 7 8 9 10 11 11 12
2 1 -3 -3 1 3 4 4 4 4 4 4 4 4 4 4 4 5 5 5 4 4 3 3 2 2 2 2 1 2 3 4 3 3 3 4 4 5 6 7 8 9 10 11
0 1 -1 -2 -2 -1 4 4 5 4 2 4 4 4 3 3 1 1 5 4 3 3 2 2 1 1 2 2 2 1 2 2 2 2 2 2 2 2 4 4 6 7 7 8
0 -0 -2 -1 -1 1 3 5 4 3 3 3 3 3 3 2 3 4 4 4 3 2 1 0 1 1 1 1 1 1 1 0 -1 -0 1 2 1 0 0 2 3 3 5 6
1 -0 -0 1 0 -1 4 4 3 3 3 4 4 3 4 4 4 4 3 3 2 1 0 0 0 1 1 1 0 1 0 -0 -1 -2 -2 -2 -2 0 -1 -1 -1 1 1 2
1 2 0 1 1 3 4 4 5 4 3 3 3 3 3 3 3 3 2 1 1 0 -0 -0 -1 -0 0 -1 -2 -2 -2 -3 -4 -3 -3 -5 -5 -5 -5 -4 -3 -3 -2 -1
1 2 0 2 2 2 4 4 3 3 3 3 3 3 3 3 3 2 1 1 0 0 -0 -1 -1 -1 -1 -1 -2 -3 -4 -5 -5 -5 -6 -6 -5 -6 -5 -5 -4 -4 -4 -3
1 1 1 0 2 3 4 3 3 3 3 3 3 2 2 2 2 1 1 0 -0 -1 -2 -3 -4 -4 -3 -3 -2 -3 -4 -5 -6 -6 -6 -6 -6 -6 -6 -5 -5 -5 -4 -4
0 -0 0 1 3 3 3 3 3 2 3 3 2 3 2 2 1 1 0 -1 -3 -4 -5 -4 -4 -4 -3 -2 -2 -3 -3 -4 -5 -7 -7 -7 -7 -6 -6 -6 -5 -5 -5 -4
Height
1517 1525 1536 1535 1534 1537 1539 1541 1544 1538 1528 1522 1518 1507 1507 1502 1498 1496 1491 1491 1487 1482 1477 1477 1478 1478 1478 1479 1482 1485 1487 1490 1496 1499 1500 1503 1503 1508 1511 1514 1519 1523 1527 1530
1525 1533 1533 1533 1533 1536 1536 1539 1542 1533 1526 1526 1518 1504 1504 1501 1498 1493 1490 1487 1485 1481 1475 1472 1472 1472 1470 1469 1470 1474 1478 1481 1484 1489 1492 1496 1500 1502 1506 1509 1511 1515 1518 1522
1530 1534 1532 1532 1534 1537 1537 1538 1539 1537 1528 1524 1523 1509 1505 1501 1496 1490 1487 1484 1481 1478 1474 1469 1465 1464 1462 1460 1460 1463 1467 1471 1474 1479 1484 1491 1495 1497 1498 1499 1501 1503 1507 1512
1532 1533 1533 1534 1536 1538 1540 1532 1532 1533 1535 1543 1528 1526 1511 1502 1495 1490 1484 1486 1482 1476 1471 1467 1462 1459 1457 1456 1455 1454 1457 1461 1465 1470 1474 1476 1479 1481 1482 1486 1492 1496 1499 1504
1538 1535 1535 1535 1536 1533 1534 1529 1530 1528 1535 1539 1529 1539 1522 1510 1508 1502 1496 1490 1485 1478 1472 1466 1460 1455 1451 1449 1448 1447 1447 1449 1454 1458 1461 1465 1469 1472 1478 1481 1484 1488 1491 1495
1534 1532 1534 1536 1532 1531 1529 1526 1526 1529 1535 1540 1528 1533 1536 1530 1525 1509 1501 1495 1489 1483 1477 1470 1464 1454 1446 1442 1440 1439 1439 1438 1442 1445 1451 1454 1458 1462 1467 1471 1474 1477 1480 1485
1540 1537 1537 1537 1537 1532 1533 1535 1548 1544 1542 1542 1527 1535 1544 1529 1522 1516 1510 1502 1495 1490 1483 1474 1464 1455 1449 1441 1434 1429 1429 1430 1433 1435 1438 1442 1447 1454 1457 1460 1464 1468 1472 1473
1556 1547 1544 1543 1544 1544 1542 1539 1559 1572 1551 1546 1530 1539 1540 1532 1525 1525 1514 1504 1501 1491 1488 1479 1470 1460 1455 1448 1437 1428 1426 1427 1429 1431 1432 1436 1440 1446 1449 1452 1455 1457 1461 1465
1558 1553 1544 1542 1542 1543 1540 1545 1539 1549 1548 1548 1538 1536 1530 1532 1526 1518 1510 1501 1500 1496 1495 1486 1477 1468 1464 1454 1445 1437 1430 1423 1427 1431 1433 1435 1441 1444 1446 1449 1450 1452 1456 1458
1552 1559 1546 1544 1541 1541 1542 1541 1547 1549 1547 1545 1536 1542 1544 1530 1526 1519 1516 1513 1503 1497 1495 1492 1484 1476 1470 1462 1454 1446 1439 1433 1427 1429 1432 1433 1436 1439 1442 1446 1447 1448 1452 1456
1552 1555 1551 1546 1548 1549 1550 1550 1548 1547 1552 1557 1547 1541 1532 1531 1524 1522 1518 1514 1509 1502 1498 1494 1488 1482 1474 1468 1461 1453 1446 1440 1433 1432 1429 1431 1433 1435 1437 1440 1442 1443 1440 1450
1553 1558 1559 1552 1545 1546 1547 1552 1555 1556 1556 1557 1553 1542 1531 1529 1526 1523 1520 1518 1513 1506 1500 1493 1491 1486 1477 1470 1463 1459 1453 1449 1445 1441 1436 1432 1428 1430 1433 1434 1437 1437 1440 1441
1552 1560 1569 1551 1547 1546 1550 1551 1556 1559 1559 1552 1551 1537 1526 1527 1526 1525 1522 1520 1516 1510 1503 1498 1496 1487 1478 1474 1467 1462 1459 1454 1451 1448 1445 1440 1435 1434 1433 1432 1432 1433 1429 1424
1550 1555 1554 1560 1548 1553 1553 1551 1554 1558 1575 1561 1543 1534 1529 1529 1528 1526 1522 1519 1516 1512 1509 1504 1497 1488 1478 1472 1475 1469 1461 1457 1456 1451 1449 1448 1444 1442 1441 1440 1439 1436 1433 1430
1550 1557 1553 1550 1549 1550 1549 1550 1551 1554 1551 1558 1539 1539 1533 1531 1528 1526 1523 1520 1515 1511 1506 1502 1496 1489 1484 1479 1477 1470 1465 1460 1458 1453 1453 1450 1446 1443 1441 1441 1436 1435 1435 1432
1550 1558 1554 1555 1546 1547 1546 1543 1545 1544 1543 1543 1539 1535 1531 1529 1526 1525 1523 1520 1515 1510 1505 1501 1496 1490 1486 1480 1476 1467 1465 1464 1454 1447 1453 1450 1445 1441 1439 1438 1435 1430 1434 1431
1551 1552 1558 1553 1545 1544 1553 1536 1535 1532 1533 1533 1534 1531 1528 1526 1525 1523 1521 1518 1515 1511 1507 1502 1499 1495 1489 1482 1477 1473 1468 1462 1452 1449 1448 1444 1439 1438 1435 1435 1433 1431 1426 1426
1550 1551 1554 1557 1548 1572 1528 1526 1527 1529 1530 1529 1529 1528 1527 1525 1523 1521 1520 1517 1514 1510 1505 1500 1495 1488 1485 1482 1476 1472 1470 1457 1451 1448 1448 1438 1436 1432 1432 1433 1428 1424 1424 1424
1543 1548 1564 1570 1553 1536 1524 1526 1529 1528 1530 1528 1528 1527 1525 1523 1521 1518 1519 1516 1513 1509 1506 1500 1495 1491 1485 1480 1475 1470 1460 1454 1447 1442 1440 1439 1434 1430 1425 1422 1420 1417 1416 1419
1545 1547 1555 1562 1565 1561 1523 1523 1525 1528 1533 1527 1526 1525 1523 1521 1522 1516 1514 1512 1510 1507 1503 1497 1492 1487 1482 1477 1471 1467 1462 1455 1448 1443 1436 1431 1427 1421 1411 1414 1411 1407 1407 1406
1547 1549 1557 1556 1554 1537 1518 1520 1523 1531 1530 1523 1523 1522 1521 1520 1517 1512 1510 1509 1507 1504 1500 1495 1490 1486 1481 1476 1471 1464 1458 1453 1450 1443 1434 1428 1423 1417 1411 1405 1403 1401 1399 1396
1530 1540 1544 1544 1547 1544 1513 1518 1523 1519 1518 1519 1519 1519 1516 1514 1511 1509 1507 1505 1502 1499 1496 1493 1487 1483 1479 1473 1466 1460 1453 1446 1439 1432 1427 1423 1417 1411 1405 1397 1393 1390 1391 1386
1528 1517 1526 1525 1518 1507 1507 1507 1510 1513 1515 1516 1516 1514 1512 1509 1507 1506 1503 1501 1498 1495 1491 1487 1483 1479 1475 1470 1464 1457 1451 1444 1436 1428 1422 1415 1409 1404 1398 1391 1385 1383 1377 1375
1513 1512 1515 1514 1503 1505 1506 1507 1507 1509 1510 1511 1511 1510 1508 1506 1504 1502 1499 1497 1493 1489 1484 1481 1477 1473 1470 1465 1460 1454 1446 1438 1429 1421 1413 1406 1399 1394 1389 1385 1382 1375 1371 1367
1509 1509 1508 1507 1500 1501 1501 1501 1503 1503 1504 1504 1505 1504 1503 1502 1501 1498 1495 1491 1487 1483 1480 1477 1473 1469 1464 1459 1454 1448 1440 1432 1423 1414 1406 1397 1390 1386 1377 1373 1368 1366 1358 1357
1498 1499 1504 1496 1493 1495 1495 1496 1498 1498 1497 1497 1497 1497 1497 1498 1496 1494 1491 1487 1483 1479 1475 1472 1468 1464 1459 1454 1448 1442 1435 1426 1416 1406 1397 1389 1380 1372 1366 1357 1349 1350 1346 1347
Wind_Speed
10 9 6 5 4 3 3 3 5 6 9 11 6 20 17 23 25 23 28 25 33 36 34 29 23 26 39 46 47 48 47 49 51 51 51 50 51 48 46 43 41 40 39 37
6 10 3 3 4 2 0 2 5 8 6 11 12 23 14 11 15 23 24 27 28 29 29 29 27 27 29 39 46 49 51 51 50 54 55 54 52 51 48 46 44 43 43 42
6 2 5 5 5 6 3 2 3 6 6 6 8 10 8 23 19 24 26 25 24 24 28 27 20 22 23 36 43 45 48 53 54 53 54 55 54 53 53 52 49 48 48 45
4 4 4 4 4 2 3 5 5 6 6 3 4 8 11 8 20 14 25 28 25 23 21 19 22 22 17 22 37 45 48 50 53 55 58 57 59 61 60 57 53 51 50 47
2 5 5 4 3 2 6 6 6 4 2 3 4 2 7 13 17 17 23 30 34 31 27 29 24 17 19 17 19 42 47 52 52 57 60 59 59 59 60 59 58 55 52 50
2 3 3 3 5 3 7 4 5 4 3 2 3 0 5 8 12 20 29 32 34 38 35 37 36 30 26 18 17 26 44 52 54 55 58 62 62 59 58 61 58 58 55 54
7 4 5 9 7 7 9 5 4 5 4 3 5 5 7 12 13 17 22 28 34 34 38 43 48 50 46 37 25 19 30 49 53 56 57 60 62 62 61 59 59 58 56 57
5 3 5 7 1 3 4 1 4 2 2 4 6 4 2 16 22 29 32 37 32 39 39 44 49 52 54 56 44 25 11 31 44 50 56 57 57 61 63 63 61 59 57 54
2 3 5 3 3 1 4 3 2 3 0 3 2 3 4 15 16 22 30 36 35 35 37 42 48 53 55 58 60 51 33 8 13 33 41 46 48 50 55 56 58 58 57 55
2 2 1 6 6 5 3 3 2 3 2 3 2 3 3 9 11 9 10 20 31 34 38 38 41 45 49 52 54 55 54 48 20 6 21 32 38 42 47 48 49 48 50 48
1 2 4 2 3 2 5 4 3 1 2 1 3 2 5 7 11 8 12 17 23 29 35 36 41 41 42 47 46 46 52 53 49 38 6 13 23 31 36 41 45 47 49 48
1 2 3 4 6 4 2 2 4 3 2 2 2 4 3 5 15 18 16 17 22 27 29 30 36 38 41 42 44 44 43 44 46 43 40 23 7 13 24 30 33 36 42 46
3 1 2 2 3 3 3 3 4 2 2 6 2 4 7 13 16 17 17 17 18 23 28 33 36 39 41 43 44 43 40 40 36 37 38 33 32 26 22 14 8 9 9 17
5 3 5 5 2 2 3 3 2 4 2 3 7 11 10 9 9 16 19 16 18 19 22 28 38 42 43 41 43 41 42 37 36 33 32 34 30 26 23 18 17 16 12 7
3 4 2 6 6 3 6 9 7 8 9 5 6 8 6 6 6 10 12 14 18 21 23 28 33 39 41 42 42 41 38 39 36 33 31 29 31 31 27 20 19 15 14 13
1 2 1 4 4 6 8 9 7 9 9 11 14 16 1 10 10 8 10 15 20 26 28 32 33 38 40 42 40 42 42 37 34 33 33 29 27 29 35 35 31 21 16 13
3 3 2 3 3 4 5 6 6 3 2 4 4 3 5 4 9 7 8 13 16 21 27 32 32 27 31 37 37 38 39 39 36 33 34 31 28 28 29 32 35 31 27 21
4 4 2 2 3 2 4 2 3 5 4 2 1 3 6 9 15 14 10 18 18 21 27 32 36 39 35 33 35 36 36 38 38 38 38 37 38 35 30 29 31 32 30 29
7 3 1 2 2 7 2 3 5 3 4 3 3 6 8 10 13 14 15 16 18 22 26 31 32 34 35 34 34 36 38 39 41 40 38 38 39 41 40 36 32 29 30 35
6 2 3 1 2 5 4 4 5 6 3 1 5 6 8 12 4 5 20 20 19 24 28 29 30 32 31 32 34 35 36 38 38 39 41 41 42 42 42 43 42 39 36 36
5 1 4 2 3 7 5 8 8 4 4 3 3 5 10 4 14 22 22 18 22 25 26 25 26 27 30 32 35 37 39 39 37 38 41 41 42 43 43 45 43 43 44 43
7 7 4 4 5 9 12 5 6 2 5 10 8 10 18 23 22 19 19 22 25 23 23 25 27 29 31 32 35 37 40 40 40 42 42 44 44 43 45 45 46 44 44 45
3 5 5 8 6 5 20 8 7 7 9 10 10 17 20 18 15 18 21 23 23 26 28 26 25 27 28 31 33 36 39 39 41 43 44 43 41 38 38 41 45 43 42 43
4 6 3 1 5 12 17 15 17 15 12 10 13 18 12 13 16 19 20 21 26 28 26 25 26 27 28 31 33 34 39 38 38 40 43 43 44 42 39 36 36 39 40 36
5 7 4 6 8 17 21 17 9 9 14 14 14 19 13 14 15 17 22 24 24 23 24 23 23 26 30 33 36 36 40 41 42 42 43 44 44 43 44 43 41 40 40 36
12 6 6 7 11 13 12 14 14 18 19 19 22 17 13 14 16 19 21 22 21 21 21 23 25 27 30 34 37 37 41 46 47 45 46 45 46 47 48 47 48 43 42 38
Wind_Direction
35 65 54 40 74 131 170 206 280 250 285 325 296 298 317 310 305 301 302 304 312 313 312 311 304 283 262 254 245 240 236 234 231 229 228 226 227 225 226 225 226 227 229 229
40 59 16 7 55 55 320 323 310 298 294 305 302 302 306 301 290 298 301 311 312 313 314 312 307 295 276 265 258 247 240 236 235 233 232 231 230 230 230 230 229 229 230 231
85 61 9 46 17 28 318 229 258 269 320 270 324 307 14 338 339 328 319 312 319 321 317 312 319 329 293 266 260 255 247 241 239 235 234 234 236 236 234 232 231 230 230 230
85 19 32 41 54 98 293 223 256 282 12 346 42 296 332 318 319 310 312 348 8 9 355 332 316 312 311 289 265 264 259 250 242 240 235 234 235 235 235 233 232 231 231 232
300 10 10 27 304 275 242 316 268 247 211 33 288 352 321 354 9 10 3 4 359 8 12 15 2 333 314 298 268 261 260 255 249 241 238 238 237 241 241 242 237 235 234 233
31 312 52 343 312 318 290 317 3 42 79 30 308 112 340 11 344 5 359 7 11 14 16 24 24 24 8 335 292 258 248 254 252 247 242 239 240 240 240 241 243 239 236 235
346 1 1 31 350 345 17 35 10 15 14 250 340 23 34 335 356 2 355 3 15 15 14 20 24 27 24 18 353 303 239 244 248 248 248 244 243 242 242 243 245 243 241 237
31 355 15 348 145 265 312 84 127 187 298 294 328 46 251 354 12 359 349 3 1 13 16 25 26 28 27 29 24 12 319 237 245 246 250 248 247 245 244 243 244 247 247 243
48 284 328 335 307 169 321 64 193 140 304 278 258 3 20 354 343 12 1 356 356 12 8 16 25 28 26 28 32 31 29 32 234 251 247 247 245 243 244 245 246 247 250 250
184 285 286 300 3 8 65 308 68 18 17 297 305 75 269 355 358 3 13 351 357 4 11 5 10 11 13 22 25 28 34 38 40 237 246 254 252 250 250 249 250 251 255 256
65 117 294 352 51 350 354 13 19 162 96 227 314 173 23 329 345 2 12 11 14 5 354 4 5 6 1 2 15 18 24 29 35 37 348 254 257 263 261 257 253 255 265 254
125 149 276 258 276 199 54 80 56 66 328 265 262 242 59 16 9 15 19 23 16 19 11 3 359 4 8 3 4 13 13 16 22 26 35 44 15 262 248 250 253 250 245 244
173 191 349 21 14 74 107 119 114 230 200 235 224 250 28 29 8 7 7 23 24 20 16 9 7 6 9 7 7 6 9 6 1 11 20 26 36 40 41 39 360 338 314 280
175 187 197 201 168 136 260 189 140 161 178 264 247 296 331 351 351 350 6 17 14 16 14 8 4 4 6 6 2 3 2 6 3 359 357 360 19 21 23 30 39 43 36 9
122 200 225 264 262 225 254 264 254 212 224 213 283 277 300 312 319 340 3 9 5 3 3 2 0 360 358 356 350 355 355 355 352 357 351 347 333 342 359 355 1 12 20 28
328 226 52 289 287 223 256 255 238 245 244 239 260 280 267 324 345 354 8 1 356 353 350 352 355 353 352 352 351 346 342 341 343 343 339 337 332 326 320 323 334 343 338 345
150 147 127 265 332 316 309 228 194 221 157 205 244 246 320 319 333 311 334 344 342 342 342 344 346 349 348 347 346 343 337 336 335 332 329 326 326 321 315 310 303 318 320 320
157 159 144 261 354 8 251 105 123 157 166 165 201 280 301 303 315 309 306 330 329 335 335 337 337 337 342 346 341 336 336 338 336 330 324 325 321 317 311 305 299 293 297 306
169 154 117 119 255 292 233 182 165 173 226 205 239 262 301 317 318 290 314 312 309 322 327 330 329 328 330 336 339 339 340 336 334 332 326 322 318 313 310 307 302 292 285 277
131 75 120 153 138 238 234 163 135 124 260 169 270 297 313 325 314 272 325 317 310 319 326 326 323 326 330 334 337 336 338 336 331 326 325 323 318 314 311 305 301 298 294 285
151 194 192 178 241 282 238 165 149 153 220 301 301 280 322 253 278 301 309 311 316 324 327 323 325 329 332 333 333 335 336 336 331 327 323 320 319 316 311 306 301 297 292 289
168 161 188 176 209 259 160 119 177 182 323 307 306 306 299 305 300 300 307 314 319 323 325 324 322 323 329 335 337 336 336 334 331 328 326 323 320 315 312 310 304 299 295 292
213 189 180 188 214 220 185 196 203 260 302 277 298 316 302 297 293 302 309 312 314 317 319 320 319 321 328 336 341 338 338 335 330 329 325 319 316 312 309 307 304 302 301 294
239 185 206 151 210 213 219 239 265 276 275 292 269 317 294 280 290 300 304 309 314 318 322 326 326 327 333 338 340 343 341 334 324 322 322 319 317 314 310 303 294 294 293 289
200 160 186 258 268 272 276 272 284 302 284 292 290 312 271 279 294 305 312 316 320 321 322 325 325 325 335 337 340 342 340 339 332 329 325 323 318 312 309 301 297 290 286 283
188 186 196 239 221 233 249 276 293 296 292 296 301 297 270 284 302 309 313 317 317 319 325 325 324 329 337 340 343 342 342 341 338 332 330 325 320 317 313 311 307 300 295 285